Flag for U.S.A. Weather past 2 weeks in Wright, Florida, U.S.A.

Now
64 °F

Sunny.


Feels Like: 64 °F
Forecast: 54 / 73 °F
Wind: 5 mph from Northeast

Location: Hurlburt Field


UV Index: 5 (Moderate)

Visibility: 10 mi


Pressure: 30.16 "Hg

Humidity: 68%

Dew point: 53 °F

Location of WrightLocation

Historic Weather in Wright

°F

Wright temperature yesterday

Maximum temperature yesterday: 63 °F (at 3:58 PM)
Minimum temperature yesterday: 54 °F (at 11:58 PM)
Average temperature yesterday: 59 °F

Past Weeks' High & Low Weather Summary

 TemperatureHumidityPressure
High76 °F (Apr 19, 2:58 PM)88% (Apr 7, 1:53 AM)30.29 "Hg (Apr 7, 1:53 AM)
Low41 °F (Apr 16, 5:58 AM)21% (Apr 9, 5:58 PM)29.68 "Hg (Apr 7, 4:03 PM)
Average63 °F69%30.04 "Hg
* Reported Apr 6 7:58 AM — Apr 21 7:58 AM, Wright, Weather by CustomWeather, © 2014

Note: Actual official high and low records may vary slightly from our data, if they occured in-between our weather recording intervals... More about our weather records

Advertising

Historic Weather Conditions — Data for Previous 24 hours

 ConditionsComfort  
Time TempWeatherWind HumidityBarometerVisibility
7:58 AM
Apr 21
58 °FSunny.5 mph84%30.16 "Hg10 mi
6:58 AM53 °FSunny.5 mph87%30.16 "Hg10 mi
5:58 AM51 °FClear.6 mph86%30.14 "Hg10 mi
4:58 AM51 °FClear.5 mph85%30.11 "Hg10 mi
3:58 AM51 °FClear.5 mph85%30.11 "Hg10 mi
2:58 AM52 °FClear.6 mph85%30.11 "Hg10 mi
1:58 AM53 °FClear.No wind84%30.11 "Hg10 mi
12:58 AM54 °FClear.No wind85%30.14 "Hg10 mi
11:58 PM
Apr 20
54 °FClear.No wind85%30.14 "Hg10 mi
10:58 PM55 °FClear.No wind84%30.14 "Hg10 mi
9:58 PM58 °FClear.No wind75%30.16 "Hg10 mi
8:58 PM58 °FClear.No wind76%30.14 "Hg10 mi
7:58 PM59 °FClear.No wind71%30.14 "Hg10 mi
6:58 PM62 °FOvercast.8 mph64%30.12 "Hg10 mi
5:58 PM62 °FOvercast.6 mph62%30.14 "Hg10 mi
4:58 PM63 °FOvercast.10 mph61%30.14 "Hg10 mi
3:58 PM63 °FOvercast.9 mph60%30.14 "Hg10 mi
2:58 PM63 °FOvercast.10 mph60%30.14 "Hg10 mi
1:58 PM62 °FOvercast.13 mph61%30.16 "Hg10 mi
12:58 PM61 °FOvercast.10 mph62%30.17 "Hg10 mi
11:58 AM59 °FOvercast.12 mph67%30.19 "Hg10 mi
10:58 AM59 °FOvercast.14 mph69%30.19 "Hg10 mi
9:58 AM60 °FOvercast.12 mph66%30.19 "Hg10 mi
Weather by CustomWeather, © 2014

See weather overview